CAPE
241 428 257 134 166 173 205 99 77 32 24 8 0 0 0 0 0 0 0 0 0 0 0 0 0 0 0 0 0 2 43 146 325 841 1183 1415 1600 2153
72 398 500 213 294 591 335 157 97 71 22 24 24 1 0 0 0 0 0 0 0 0 0 0 0 0 0 0 0 0 2 2 6 122 534 869 1133 1483
372 449 509 595 279 283 334 286 143 113 106 1 14 31 27 80 84 82 25 0 0 0 0 0 0 0 0 0 0 0 0 1 0 0 40 397 661 847
178 402 397 281 554 426 270 286 162 209 125 108 75 42 111 135 170 220 125 0 0 0 0 0 0 0 0 0 0 0 0 0 0 0 0 2 241 418
302 391 424 526 515 231 263 140 94 289 169 137 85 56 74 147 188 275 240 121 19 0 0 0 0 0 0 0 0 0 0 0 0 0 0 0 0 8
434 488 576 562 422 299 202 229 257 234 161 151 112 76 110 336 229 235 120 45 20 4 1 0 0 0 0 0 0 0 0 0 0 0 0 0 0 0
652 858 708 612 179 116 71 196 220 187 115 93 109 88 121 136 241 161 146 80 120 26 14 8 8 5 1 5 6 1 0 0 0 0 0 0 0 0
936 728 771 128 84 23 16 44 91 195 258 214 99 228 529 353 276 278 142 41 14 22 64 24 15 5 8 15 7 0 0 0 0 0 0 0 0 0
942 799 617 181 58 119 17 0 17 16 78 308 335 380 379 399 358 151 23 26 18 19 53 22 23 27 11 2 4 1 0 0 0 0 0 0 0 0
609 534 417 323 180 45 57 38 79 132 181 106 135 173 144 56 14 24 30 39 27 32 127 73 46 19 10 41 21 11 0 0 0 0 0 0 1 1
542 383 121 102 4 0 0 4 32 58 7 0 0 0 0 0 0 11 10 24 26 38 5 5 4 12 20 21 36 14 0 0 0 0 0 0 1 1
339 69 0 0 0 0 0 0 29 52 4 0 0 0 0 1 0 12 3 11 18 8 0 14 10 21 14 11 8 18 18 0 0 0 0 0 1 0
223 119 0 0 0 0 0 1 1 0 0 0 0 1 2 2 5 6 7 24 95 19 0 11 19 14 9 6 16 4 75 25 11 0 1 1 1 0
338 50 0 0 0 0 0 0 0 0 0 0 1 1 0 0 0 0 0 2 12 28 3 6 11 8 18 8 20 18 140 64 249 28 6 0 1 0
0 0 0 0 0 0 0 0 0 0 0 0 0 0 0 0 0 0 0 1 4 7 0 2 7 14 18 15 28 15 73 294 251 22 4 5 3 2
0 0 0 0 0 0 0 0 0 0 0 0 0 0 0 0 0 0 0 0 10 2 0 0 17 11 11 14 25 5 59 265 40 6 5 8 10 3
0 0 0 0 0 2 0 0 0 0 0 0 0 0 0 0 0 0 0 2 16 17 4 0 3 7 10 6 12 13 196 331 47 7 13 5 6 9
0 0 0 0 2 1 0 0 0 0 0 0 0 0 0 0 0 0 0 4 12 12 12 7 6 9 24 9 1 1 3 249 68 36 18 16 7 10
0 0 0 0 0 0 0 0 0 0 0 0 0 0 0 0 0 0 0 0 0 1 7 10 9 4 10 11 5 4 1 11 154 7 11 11 37 7
0 0 0 0 0 0 0 0 0 0 0 0 0 0 0 0 0 0 0 0 0 1 5 20 8 3 4 8 13 25 2 8 10 57 21 48 5 0
0 0 0 0 0 0 0 0 0 0 0 0 0 0 0 0 0 0 0 0 0 0 4 10 8 1 6 2 4 6 6 1 1 7 4 17 70 39
0 0 0 0 0 0 0 0 0 0 0 0 0 0 0 0 0 0 0 0 0 2 4 4 5 5 5 7 8 6 5 2 8 0 0 1 4 226
0 0 0 0 0 0 0 0 0 0 0 0 0 0 0 0 0 0 0 0 0 0 0 0 3 1 3 5 3 5 7 2 7 5 1 0 1 0
CIN
-28 -6 -24 -98 -77 -100 -83 -24 0 0 0 0 0 0 0 0 0 0 0 0 0 0 0 0 0 0 0 0 0 0 -52 -48 -41 -5 -6 -4 -2 -1
-29 -1 -2 -23 -8 -3 -32 -129 -1 0 0 0 0 0 0 0 0 0 0 0 0 0 0 0 0 0 0 0 0 0 0 0 -74 -69 -21 -12 -11 -5
-4 -3 -3 -7 -44 -62 -58 -53 -110 0 0 0 0 -1 -11 -27 -27 -30 -2 0 0 0 0 0 0 0 0 0 0 0 0 0 0 0 -86 -43 -26 -17
-14 -6 -8 -13 -10 -31 -55 -38 -123 -141 0 0 0 0 -25 -2 0 -1 -13 0 0 0 0 0 0 0 0 0 0 0 0 0 0 0 0 -6 -69 -58
-8 -10 -10 -7 -10 -86 -71 -106 0 -30 0 0 -1 -4 -45 -10 -2 -1 0 -4 -34 0 0 0 0 0 0 0 0 0 0 0 0 0 0 0 0 -96
-17 -12 -9 -9 -29 -44 -27 -14 -26 -53 -21 0 0 0 -27 -2 -18 -15 -39 -61 0 0 -1 0 0 0 0 0 0 0 0 0 0 0 0 0 0 0
-13 -14 -6 -23 -124 -84 -29 -33 -29 -36 -1 0 0 0 -32 -30 -14 -30 -28 -53 -56 -49 0 0 0 0 0 -8 -6 -3 0 0 0 0 0 0 0 0
-14 -9 -8 -177 -233 -185 -170 -134 -78 -13 -4 0 -1 -8 -1 0 0 0 -6 -91 0 0 -7 0 0 0 0 0 -3 -4 0 0 0 0 0 0 0 0
-42 -34 -20 -66 -126 -44 -43 0 -18 -144 -64 -5 0 0 0 0 -1 -17 -52 0 0 0 -5 -166 0 0 0 0 -11 -2 0 0 0 0 0 0 0 0
-52 -36 -37 -37 -53 -39 -50 -43 -31 -12 -2 -3 -24 -23 -32 -5 0 0 0 0 0 -5 -1 0 0 -2 0 0 -1 -7 -1 0 0 0 0 0 0 0
-33 -60 -91 -103 -22 0 0 -40 -31 -16 -6 0 0 0 0 0 0 0 0 0 0 0 0 -34 -2 0 0 0 0 -1 -1 0 0 0 0 0 0 0
-33 -128 0 0 0 0 0 0 -19 -15 -55 0 0 0 0 0 -1 0 0 0 0 -1 0 -2 -1 0 0 -1 0 -4 0 0 0 0 0 0 0 0
-33 -64 0 0 0 0 0 0 0 0 0 0 0 0 0 0 0 0 0 -2 0 -1 0 -1 0 0 0 0 -2 -2 -1 -1 0 0 0 0 0 0
-10 -83 0 0 0 0 0 0 0 0 0 0 0 0 0 0 0 0 0 0 -8 -45 -16 -1 0 0 0 0 0 -14 -29 -1 0 -16 0 0 0 0
-1 0 0 0 0 0 0 0 0 0 0 0 0 0 0 0 0 0 0 0 0 -116 0 -1 0 0 0 0 0 -1 -43 0 -2 -13 0 0 0 0
0 0 0 0 0 0 0 0 0 0 0 0 0 0 0 0 0 0 0 0 0 0 0 -1 -2 0 0 0 0 0 -29 -6 -115 0 0 0 0 0
0 0 0 0 0 0 0 0 0 0 0 0 0 0 0 0 0 0 0 0 -8 0 -1 -2 -4 -1 0 0 -17 -122 -22 -16 -160 0 0 0 0 0
0 0 0 0 0 0 0 0 0 0 0 0 0 0 0 0 0 0 0 0 0 0 -1 -1 -1 -1 -1 0 0 0 0 -6 -82 -107 -1 0 0 0
0 0 0 0 0 0 0 0 0 0 0 0 0 0 0 0 0 0 0 0 0 0 0 -27 -6 0 0 0 0 0 0 0 -7 -87 -58 -97 -80 0
0 0 0 0 0 0 0 0 0 0 0 0 0 0 0 0 0 0 0 0 0 0 0 -10 0 0 0 0 0 0 -4 0 0 -7 -16 -13 -12 0
0 0 0 0 0 0 0 0 0 0 0 0 0 0 0 0 0 0 0 0 0 0 0 0 0 0 0 -3 -1 -1 0 0 0 0 0 0 -1 -17
0 0 0 0 0 0 0 0 0 0 0 0 0 0 0 0 0 0 0 0 0 0 0 0 0 0 0 0 0 0 0 -1 -1 0 0 0 -3 -1
0 0 0 0 0 0 0 0 0 0 0 0 0 0 0 0 0 0 0 0 0 0 0 0 0 0 0 0 0 0 0 0 0 0 0 0 0 0
Wind_Speed
7 6 6 6 7 7 7 7 7 9 10 8 5 4 5 7 9 10 9 9 10 14 14 15 16 16 17 17 18 19 19 20 19 19 22 22 23 23
6 6 7 6 7 7 7 6 7 8 12 9 7 10 9 7 9 10 11 11 12 11 14 16 17 18 19 19 19 20 20 20 21 20 19 22 22 23
7 7 8 7 6 6 6 7 8 8 10 11 10 8 11 12 10 10 11 11 10 10 11 14 17 20 21 22 21 21 21 21 22 21 21 22 23 23
8 7 8 5 7 7 6 8 9 9 9 13 13 10 11 12 12 12 11 10 11 11 11 15 20 21 21 21 21 21 21 20 22 22 21 23 23 23
8 8 9 7 8 8 7 7 8 8 9 10 12 11 10 10 11 12 12 12 11 13 15 17 17 16 19 20 22 21 21 21 21 23 22 22 23 24
10 10 10 9 9 8 8 9 9 9 9 9 11 11 11 10 9 11 12 10 12 12 15 17 16 19 21 23 25 25 23 22 22 23 23 21 23 24
10 9 9 10 10 9 6 9 9 9 9 10 11 11 11 11 12 11 12 12 12 12 13 14 14 15 16 18 23 25 24 24 24 25 24 22 21 22
10 10 9 9 11 12 11 13 12 11 12 11 12 13 14 12 11 11 12 14 15 11 12 16 15 16 15 16 23 25 23 16 23 24 25 23 22 22
7 8 9 7 6 8 7 9 11 13 15 12 11 12 13 13 13 14 15 14 15 14 16 18 15 17 15 16 24 26 27 24 22 24 26 24 23 23
7 9 8 10 6 6 9 10 11 10 9 7 9 11 11 13 13 13 15 13 14 14 13 20 15 19 16 17 28 27 27 25 24 24 26 25 22 21
8 8 5 6 2 1 7 10 10 9 3 7 8 11 13 16 14 10 11 12 13 15 14 15 18 19 16 16 16 26 26 27 23 23 26 25 22 21
8 5 6 4 2 4 7 6 8 7 7 11 11 10 10 11 10 10 9 9 11 15 14 16 16 14 13 12 16 14 15 23 22 23 25 24 22 14
8 4 3 3 1 4 4 4 4 7 8 9 9 9 8 9 8 8 11 10 11 14 17 15 14 14 11 10 12 10 12 14 14 14 20 21 21 20
7 2 3 3 2 4 5 3 3 7 6 7 8 8 8 9 9 11 14 13 13 14 18 19 14 15 13 9 9 6 9 10 8 9 10 12 19 24
0 5 4 5 3 5 2 1 6 5 6 7 7 8 8 9 11 11 14 15 16 14 13 18 15 15 8 8 6 7 5 4 5 6 7 9 11 12
5 3 4 5 9 5 4 5 4 5 6 7 7 8 8 9 9 10 12 12 11 13 15 15 16 14 7 8 7 9 9 4 6 6 7 7 8 11
2 1 2 2 3 4 4 4 4 4 5 6 7 8 8 9 10 10 10 11 10 11 12 14 17 14 5 5 5 7 4 0 4 5 5 6 7 9
2 3 3 4 4 3 4 3 3 3 5 7 7 8 8 9 10 11 10 10 11 12 11 13 14 13 5 4 11 8 6 1 3 6 4 4 6 7
3 2 3 4 3 2 2 3 4 4 6 6 7 8 8 9 10 11 10 10 12 12 10 10 11 12 10 9 3 8 8 6 2 5 5 5 3 8
2 3 4 3 2 2 1 3 4 5 5 6 6 7 7 8 10 10 10 10 10 9 11 8 10 11 11 9 5 6 10 7 4 3 4 3 2 8
3 3 3 3 2 1 2 3 4 5 5 6 6 6 7 8 9 10 10 6 9 5 10 11 10 18 8 8 7 8 11 8 8 3 5 7 5 4
3 3 3 2 1 2 3 3 4 3 3 4 5 6 7 8 9 10 10 10 10 8 8 7 9 8 6 6 8 9 10 11 7 10 23 17 1 5
4 3 3 2 1 1 3 3 2 3 3 4 5 6 7 8 9 9 10 9 9 9 7 8 6 6 7 7 9 9 17 15 10 12 15 26 18 21
Wind_Direction
243 247 247 250 241 240 238 241 271 292 293 309 292 313 292 292 304 303 303 304 302 292 295 294 291 287 285 285 283 277 267 263 261 249 234 230 232 230
240 243 251 259 262 255 256 247 244 265 286 297 282 294 294 290 284 287 293 292 272 274 276 282 283 286 287 284 280 276 269 258 254 246 236 227 224 223
248 250 259 256 256 263 254 250 249 242 265 283 289 263 282 288 292 290 283 288 284 256 261 269 281 281 280 279 276 270 268 260 252 243 236 231 224 221
254 252 260 259 246 252 255 251 255 248 252 270 288 288 273 284 288 287 282 284 287 286 277 276 271 270 271 270 268 263 260 255 249 243 234 230 225 221
255 257 262 258 260 272 256 265 256 258 247 258 277 288 287 284 289 284 283 287 278 272 256 253 260 264 270 272 269 257 251 250 242 239 234 227 227 222
252 249 252 244 251 266 266 266 267 268 264 260 269 279 285 293 286 282 284 290 297 300 288 271 274 278 263 261 259 256 250 242 238 237 232 224 224 222
259 253 256 239 238 250 262 276 279 267 275 276 278 281 285 295 299 303 294 296 294 289 291 296 296 300 290 284 270 260 245 236 235 235 230 222 216 217
268 269 246 226 236 242 244 254 269 276 277 279 285 286 290 295 300 302 304 297 298 295 293 292 296 293 290 285 274 266 262 235 228 231 228 219 212 211
242 254 266 253 240 268 260 251 258 248 254 283 284 280 292 298 308 302 296 288 287 299 300 290 298 286 284 278 264 258 255 246 235 224 225 221 212 207
263 263 258 269 282 284 292 290 288 292 280 274 284 288 292 299 297 293 290 285 281 275 281 290 302 288 290 280 272 256 249 243 230 221 220 218 209 204
266 256 238 259 336 270 280 281 290 288 219 219 260 272 274 276 276 294 281 285 291 292 302 293 291 286 282 276 269 257 241 234 223 217 217 213 206 198
264 235 194 242 312 257 267 282 284 310 321 316 310 298 282 293 274 272 283 281 290 297 288 294 290 289 285 268 266 258 246 218 214 211 213 207 196 210
252 233 171 133 293 202 245 274 320 334 303 294 301 302 308 306 302 306 300 289 284 283 290 295 296 289 269 272 270 275 266 235 211 206 211 201 185 200
248 197 144 117 343 240 217 63 331 286 292 301 301 309 314 313 316 314 305 295 287 276 287 291 286 285 280 266 274 273 278 223 190 197 193 189 184 194
37 64 9 301 283 197 159 79 266 282 297 295 310 314 316 312 307 306 309 302 297 292 290 291 288 294 255 264 299 303 253 217 180 179 164 166 174 188
156 82 30 51 43 55 201 224 278 299 306 302 309 311 307 309 315 318 311 314 313 308 309 309 323 312 267 257 263 274 256 212 180 187 166 175 172 193
239 228 282 237 229 224 246 276 289 292 299 314 310 314 315 316 318 321 314 314 312 309 315 329 332 325 333 346 297 316 337 192 181 161 156 171 180 185
226 258 245 239 237 255 281 300 290 306 328 316 314 316 318 319 322 318 318 324 322 323 324 332 336 343 338 112 51 346 317 263 187 177 156 178 190 189
251 237 247 241 236 245 267 303 324 336 316 310 315 315 318 316 320 322 326 334 333 327 323 327 345 354 348 359 330 49 347 301 290 183 186 192 196 197
235 221 218 223 226 230 302 330 331 320 318 319 315 318 319 324 324 325 324 340 329 319 323 341 349 350 340 334 326 349 335 324 311 286 193 198 114 123
219 214 196 195 205 284 329 333 317 318 324 319 320 325 329 328 328 331 325 326 302 336 328 331 332 319 313 314 359 354 359 350 21 323 320 188 163 132
177 190 182 195 280 318 329 321 300 305 326 323 328 327 332 328 334 335 338 336 343 344 328 316 323 333 348 345 342 351 6 358 355 12 44 9 279 139
180 199 162 155 189 292 320 311 308 331 337 329 325 330 331 334 336 337 341 345 355 347 339 334 354 350 354 344 343 0 14 14 1 23 28 7 40 70